Back to catalog

BLOCK DM-SL R/B

AliveGEO
NORAD 40896·ROCKET BODY·🇷🇺 Russia

Launched Sep 14, 2015 from Baikonur Cosmodrome

Loading…

TLE

FreshSource: Space-Track

Epoch: Sep 13, 2026, 20:38 UTC

1 40896U 15048B   26256.85996782 -.00000156  00000-0  00000-0 0  9993
2 40896   9.3000  59.5743 0099794 150.5775 210.1115  0.98656691 39656

Track BLOCK DM-SL R/B in real time with AllMySat

Download on the App Store